Regional Weather Roundup
Issued by NWS

Home | Current Version | Previous Version | Text Only | Print | Product List | Glossary On
Versions: 1 2 3 4 5 6 7 8 9 10 11 12 13 14 15 16 17 18 19 20 21 22 23 24 25 26 27 28 29 30 31 32 33 34 35 36 37 38 39 40 41 42 43 44 45 46 47 48 49 50
000
ASUS43 KMPX 251801
RWRMN
WEATHER ROUNDUP FOR MINNESOTA
NATIONAL WEATHER SERVICE TWIN CITIES/CHANHASSEN MN
100 PM CDT MON SEP 25 2017


NOTE: "FAIR" INDICATES FEW OR NO CLOUDS BELOW 12,000 FEET WITH NO
SIGNIFICANT WEATHER AND/OR OBSTRUCTIONS TO VISIBILITY. N/A MEANS
CURRENT SKY AND/OR WEATHER CONDITIONS ARE NOT AVAILABLE.

MNZ060>063-068>070-251900-
   Twin Cities Metro

CITY           SKY/WX    TMP DP  RH WIND       PRES   REMARKS
TWIN CITIES    CLOUDY    62  59  90 NW7       29.99S
6HR MIN TEMP:  59; 6HR MAX TEMP:  62; 6HR PCP: TRACE;

ST PAUL        CLOUDY    62  59  90 N7        29.99S
CRYSTAL        CLOUDY    60  55  83 N7        29.99R
BLAINE         CLOUDY    61  61 100 N7G14     29.99S
LAKEVILLE      CLOUDY    61  61 100 N3        29.99R
EDEN PRAIRIE   CLOUDY    61  58  90 N6        29.99R
6HR MIN TEMP:  58; 6HR MAX TEMP:  61; 6HR PCP:  0.04;

SOUTH ST PAUL  CLOUDY    62  59  90 N3        29.98S
LAKE ELMO      CLOUDY    61  59  94 N6        30.00R
$$
MNZ001>005-007-008-013>017-022>024-027-028-251900-
   Northwest Minnesota

CITY           SKY/WX    TMP DP  RH WIND       PRES   REMARKS
BEMIDJI        CLOUDY    52  49  89 N7        30.07S FOG
HALLOCK          N/A     52  46  82 N12       30.13S
ROSEAU         PTSUNNY   54  48  82 N7        30.11S
WARROAD        CLOUDY    52  48  87 N7        30.11S
CROOKSTON      CLOUDY    52  46  82 NE9       30.12S
FOSSTON        CLOUDY    52  46  82 NW7       30.10S
DETROIT LAKES  CLOUDY    52  46  82 N9        30.09S
MOORHEAD       CLOUDY    52  46  82 N10       30.11S
PARK RAPIDS    CLOUDY    54  47  77 N8        30.07S
MAHNOMEN       CLOUDY    52  47  83 N12       30.09S
$$
MNZ006-009>011-018-025>026-251900-
   North Central Minnesota

CITY           SKY/WX    TMP DP  RH WIND       PRES   REMARKS
BAUDETTE       CLOUDY    53  50  89 N7        30.09R
FLAG ISLAND    CLOUDY    52  46  82 N9        30.09S
INTL FALLS     CLOUDY    54  48  80 N8        30.06S
6HR MIN TEMP:  49; 6HR MAX TEMP:  55; 6HR PCP: TRACE;

WASKISH        CLOUDY    55  50  82 NW5       30.07S
BIG FORK       CLOUDY    55  52  88 NE3       30.05S
LONGVILLE      PTSUNNY   54  52  94 NE5       30.05S
GRAND RAPIDS   LGT RAIN  54  50  86 N5        30.07R
CRANE LAKE     CLOUDY    54  52  94 N3        30.04S
ORR            CLOUDY    54  48  82 NW3       30.02R
WALKER         MOCLDY    53  47  79 N6        30.07S
$$
MNZ012-019>021-037-251900-
   Northeast Minnesota

CITY           SKY/WX    TMP DP  RH WIND       PRES   REMARKS
DULUTH         CLOUDY    56  53  90 NW6       30.01F
6HR MIN TEMP:  52; 6HR MAX TEMP:  56; 6HR PCP:  0.02;

ELY            LGT RAIN  55  54  94 CALM      30.02R
HIBBING        LGT RAIN  53  50  89 N6        30.03S
EVELETH        CLOUDY    55  53  96 NE3       30.03F
$$
MNZ029>031-032-039>041-046>048-054>057-064-251900-
   West Central Minnesota

CITY           SKY/WX    TMP DP  RH WIND       PRES   REMARKS
FERGUS FALLS   CLOUDY    54  46  76 N8        30.08F
WHEATON        CLOUDY    54  46  76 N6        30.10S
MORRIS         CLOUDY    55  50  82 N6        30.06
ALEXANDRIA     CLOUDY    56  49  77 N7        30.06F
ELBOW LAKE     CLOUDY    54  48  81 NE7       30.07S
WADENA         CLOUDY    54  48  82 N6        30.06F
GLENWOOD       CLOUDY    55  50  82 NE8       30.05F
APPLETON       CLOUDY    55  48  76 N6        30.06S
BENSON         CLOUDY    57  52  82 NE8       30.08R
ORTONVILLE     CLOUDY    54  46  76 N9        30.08S
MADISON        CLOUDY    57  52  82 N9        30.07F
WILLMAR        CLOUDY    57  54  88 NE8       30.06S
$$
MNZ033>034-036-042>043-049>051-058-059-251900-
   Central Minnesota

CITY           SKY/WX    TMP DP  RH WIND       PRES   REMARKS
ST CLOUD       CLOUDY    57  54  89 NW10      30.03R
6HR MIN TEMP:  52; 6HR MAX TEMP:  57; 6HR PCP:  0.04;

SAUK CENTRE    CLOUDY    53  49  87 N7        30.05F
PAYNESVILLE    CLOUDY    56  52  85 N7        30.05F
AITKIN         CLOUDY    52  48  87 N6        30.04S
PINE RIVER     CLOUDY    52  46  82 N8        30.08F
BRAINERD       CLOUDY    55  51  86 N7        30.06R
STAPLES        CLOUDY    55  48  76 N6        30.06R
LITTLE FALLS   CLOUDY    54  48  82 NW5       30.05F HAZE
LITCHFIELD     CLOUDY    55  55 100 N8        30.04F
BUFFALO        CLOUDY    57  53  88 N3        30.03R
MAPLE LAKE     CLOUDY    57  55  95 NW6       30.04R
HUTCHINSON     LGT RAIN  56  55  98 NW9       30.04S
$$
MNZ037-044-045-052-053-251900-
   East Central Minnesota

CITY           SKY/WX    TMP DP  RH WIND       PRES   REMARKS
PRINCETON      HVY RAIN  59  55  88 N6        30.02S
MORA           LGT RAIN  55  52  88 N5        30.04R
RUSH CITY      CLOUDY    57  54  89 N6        30.01S
MOOSE LAKE     LGT RAIN  55  52  88 N5        30.00S
HINCKLEY       CLOUDY    55  54  94 N3        30.02R
CLOQUET        CLOUDY    55  50  82 N6        30.01F
MCGREGOR       CLOUDY    54  50  87 NW7       30.04S
$$
MNZ071>073-080-081-089-090-097-098-251900-
   Southwest Minnesota

CITY           SKY/WX    TMP DP  RH WIND       PRES   REMARKS
MONTEVIDEO     CLOUDY    57  54  88 CALM      30.06S
GRANITE FALLS  CLOUDY    56  52  86 NW9       30.07S
CANBY          CLOUDY    55  49  83 N6        30.08F
MARSHALL       CLOUDY    55  50  83 N8        30.06S
REDWOOD FALLS  CLOUDY    59  52  77 N8        30.03F
OLIVIA         CLOUDY    55  52  88 N6        30.04S
PIPESTONE      LGT RAIN  54  52  94 NE8G17    30.04F
WORTHINGTON    CLOUDY    53  51  93 N12       30.03S FOG
JACKSON        CLOUDY    54  54 100 N7        30.02S
TRACY          CLOUDY    54  52  92 N10       30.05F
SLAYTON        CLOUDY    52  45  76 N13       30.05F
$$
MNZ065>067-074>077-082>085-091>093-251900-
   South Central Minnesota

CITY           SKY/WX    TMP DP  RH WIND       PRES   REMARKS
MANKATO        CLOUDY    58  56  93 N9        30.01S
NEW ULM        DRIZZLE   55  54  94 N7        30.02S
ST JAMES       LGT RAIN  55  55 100 NW6       30.02F
FAIRMONT       CLOUDY    57  55  93 N13       30.00F
FARIBAULT      CLOUDY    63  61  94 NW7       29.99S
OWATONNA       CLOUDY    64  63  94 NW7       29.98S FOG
WASECA         CLOUDY    59  57  94 N6        30.01S FOG
ALBERT LEA     CLOUDY    73  66  78 W3        29.97S
$$
MNZ078>079-086>088-094>096-251900-
   Southeast Minnesota

CITY           SKY/WX    TMP DP  RH WIND       PRES   REMARKS
ROCHESTER      MOSUNNY   77  68  73 SE8       29.94F
6HR MIN TEMP:  64; 6HR MAX TEMP:  78;

RED WING       CLOUDY    72  63  73 NW5       29.94S
STANTON        CLOUDY    64  60  87 NW9       29.97S
DODGE CENTER   PTSUNNY   70  64  83 NW6       29.96S
WINONA         CLOUDY    81  64  57 E5        29.92F
AUSTIN         PTSUNNY   73  66  78 CALM      29.94F
PRESTON        CLOUDY    72  66  82 CALM      29.95F
$$
ABBREVIATIONS USED IN REMARKS
   TC - TEMPERATURES IN CELSIUS
  WCI - WIND CHILL INDEX
   HX - HEAT INDEX
  VSB - VISIBILITY
$$




USA.gov is the U.S. government's official web portal to all federal, state and local government web resources and services.